Japanese version Home page |
Updated on February 17, 2021 |
Profile
|
Orbital ElementsEpoch 2007 Jan. 20.0 TT = JDT 2454120.5 T 2007 Jan. 19.80357 TT Bell q 2.4426952 (2000.0) P Q n 0.07003037 Peri. 46.84788 -0.55187643 -0.80718421 a 5.8292379 Node 77.79416 +0.68934271 -0.58293455 e 0.5809581 Incl. 12.37653 +0.46929632 -0.09295675 P 14.1 From 162 observations 2007 Jan. 17-2021 Jan. 6, mean residual 0".8.
|
Magnitudes Graphm1 = 13.7 + 5 log d + 10.0 log r
|
The orbital elements are published on M.P.E.C. 2021-A66.
|